TimeEST,TemperatureF,Dew PointF,Humidity,Sea Level PressureIn,VisibilityMPH,Wind Direction,Wind SpeedMPH,Gust SpeedMPH,PrecipitationIn,Events,Conditions,WindDirDegrees,DateUTC
12:10 AM,48.2,39.2,71,30.11,10.0,SSW,3.5,-,N/A,,Overcast,200,2014-02-02 05:10:00
12:52 AM,46.9,39.0,74,30.10,10.0,SW,5.8,-,N/A,,Overcast,230,2014-02-02 05:52:00
1:20 AM,46.4,39.2,76,30.10,10.0,SSW,5.8,-,N/A,,Overcast,210,2014-02-02 06:20:00
1:52 AM,45.0,39.9,82,30.09,10.0,SSW,3.5,-,N/A,,Mostly Cloudy,210,2014-02-02 06:52:00
2:35 AM,44.6,39.2,81,30.09,10.0,SSW,4.6,-,N/A,,Scattered Clouds,200,2014-02-02 07:35:00
2:52 AM,43.0,39.0,86,30.09,10.0,SSW,5.8,-,N/A,,Clear,200,2014-02-02 07:52:00
3:52 AM,41.0,39.0,93,30.08,10.0,South,4.6,-,N/A,,Scattered Clouds,190,2014-02-02 08:52:00
4:52 AM,39.9,39.0,97,30.09,9.0,SSW,4.6,-,N/A,,Mostly Cloudy,200,2014-02-02 09:52:00
5:06 AM,37.4,37.4,100,30.08,7.0,South,5.8,-,N/A,,Mostly Cloudy,190,2014-02-02 10:06:00
5:14 AM,39.2,39.2,100,30.08,7.0,SSW,5.8,-,N/A,,Mostly Cloudy,200,2014-02-02 10:14:00
5:40 AM,42.8,42.8,100,30.08,9.0,SW,6.9,-,N/A,,Overcast,230,2014-02-02 10:40:00
5:52 AM,43.0,42.1,97,30.08,8.0,SW,6.9,-,N/A,,Overcast,230,2014-02-02 10:52:00
6:42 AM,42.8,42.8,100,30.08,2.0,SSW,6.9,-,N/A,,Overcast,210,2014-02-02 11:42:00
6:52 AM,43.0,42.1,97,30.08,2.0,SSW,8.1,-,N/A,,Overcast,210,2014-02-02 11:52:00
7:52 AM,43.0,42.1,97,30.11,4.0,SW,8.1,-,N/A,,Overcast,230,2014-02-02 12:52:00
8:52 AM,44.1,43.0,96,30.13,5.0,WSW,6.9,-,N/A,,Overcast,240,2014-02-02 13:52:00
9:52 AM,46.0,44.1,93,30.14,10.0,SW,8.1,-,N/A,,Overcast,230,2014-02-02 14:52:00
10:21 AM,48.2,44.6,87,30.14,10.0,WSW,9.2,-,N/A,,Overcast,240,2014-02-02 15:21:00
10:52 AM,51.1,45.0,80,30.14,10.0,SW,8.1,-,N/A,,Overcast,230,2014-02-02 15:52:00
11:31 AM,53.6,46.4,77,30.13,10.0,WSW,8.1,-,N/A,,Overcast,240,2014-02-02 16:31:00
11:52 AM,55.0,46.0,72,30.12,10.0,SW,9.2,-,N/A,,Overcast,220,2014-02-02 16:52:00
12:19 PM,57.2,46.4,67,30.10,10.0,SW,11.5,17.3,N/A,,Overcast,220,2014-02-02 17:19:00
12:52 PM,61.0,48.0,62,30.07,10.0,SSW,9.2,-,N/A,,Overcast,200,2014-02-02 17:52:00
1:52 PM,64.9,48.9,56,30.05,10.0,WSW,10.4,16.1,N/A,,Overcast,240,2014-02-02 18:52:00
2:52 PM,66.9,50.0,54,30.02,10.0,SSW,11.5,18.4,N/A,,Mostly Cloudy,200,2014-02-02 19:52:00
3:52 PM,66.9,48.9,52,30.03,10.0,SSW,10.4,-,N/A,,Mostly Cloudy,210,2014-02-02 20:52:00
4:52 PM,66.9,50.0,54,30.02,10.0,SW,6.9,-,N/A,,Mostly Cloudy,220,2014-02-02 21:52:00
5:52 PM,62.1,48.9,62,30.04,10.0,South,6.9,-,N/A,,Mostly Cloudy,190,2014-02-02 22:52:00
6:52 PM,57.9,48.0,70,30.03,10.0,South,9.2,-,N/A,,Mostly Cloudy,170,2014-02-02 23:52:00
7:52 PM,55.0,48.0,77,30.04,10.0,South,6.9,-,N/A,,Mostly Cloudy,170,2014-02-03 00:52:00
8:52 PM,57.0,48.9,74,30.04,10.0,SSW,9.2,-,N/A,,Overcast,200,2014-02-03 01:52:00
9:52 PM,54.0,48.9,83,30.03,10.0,South,5.8,-,N/A,,Overcast,170,2014-02-03 02:52:00
10:52 PM,55.0,50.0,83,30.02,10.0,South,5.8,-,N/A,,Overcast,180,2014-02-03 03:52:00
11:52 PM,54.0,51.1,90,29.99,10.0,SSE,4.6,-,N/A,,Overcast,150,2014-02-03 04:52:00